#datetime,building,power
2023-08-31T00:00:00,75s,1.05
2023-08-31T00:01:00,75s,1.06
2023-08-31T00:02:00,75s,1.00
2023-08-31T00:03:00,75s,1.01
2023-08-31T00:04:00,75s,1.00
2023-08-31T00:05:00,75s,1.03
2023-08-31T00:06:00,75s,1.00
2023-08-31T00:07:00,75s,1.00
2023-08-31T00:08:00,75s,0.98
2023-08-31T00:09:00,75s,0.89
2023-08-31T00:10:00,75s,0.89
2023-08-31T00:11:00,75s,1.21
2023-08-31T00:12:00,75s,0.96
2023-08-31T00:13:00,75s,1.04
2023-08-31T00:14:00,75s,0.97
2023-08-31T00:15:00,75s,0.93
2023-08-31T00:16:00,75s,0.88
2023-08-31T00:17:00,75s,0.89
2023-08-31T00:18:00,75s,0.89
2023-08-31T00:19:00,75s,0.88
2023-08-31T00:20:00,75s,0.87
2023-08-31T00:21:00,75s,0.88
2023-08-31T00:22:00,75s,0.96
2023-08-31T00:23:00,75s,0.99
2023-08-31T00:24:00,75s,0.96
2023-08-31T00:25:00,75s,1.00
2023-08-31T00:26:00,75s,0.94
2023-08-31T00:27:00,75s,0.94
2023-08-31T00:28:00,75s,1.39
2023-08-31T00:29:00,75s,0.93
2023-08-31T00:30:00,75s,0.93
2023-08-31T00:31:00,75s,1.02
2023-08-31T00:32:00,75s,1.32
2023-08-31T00:33:00,75s,0.94
2023-08-31T00:34:00,75s,0.94
2023-08-31T00:35:00,75s,0.87
2023-08-31T00:36:00,75s,0.94
2023-08-31T00:37:00,75s,0.96
2023-08-31T00:38:00,75s,0.95
2023-08-31T00:39:00,75s,0.86
2023-08-31T00:40:00,75s,1.00
2023-08-31T00:41:00,75s,0.86
2023-08-31T00:42:00,75s,0.86
2023-08-31T00:43:00,75s,0.87
2023-08-31T00:44:00,75s,0.86
2023-08-31T00:45:00,75s,0.96
2023-08-31T00:46:00,75s,1.01
2023-08-31T00:47:00,75s,0.93
2023-08-31T00:48:00,75s,0.93
2023-08-31T00:49:00,75s,1.01
2023-08-31T00:50:00,75s,1.01
2023-08-31T00:51:00,75s,1.01
2023-08-31T00:52:00,75s,1.09
2023-08-31T00:53:00,75s,1.09
2023-08-31T00:54:00,75s,1.09
2023-08-31T00:55:00,75s,1.03
2023-08-31T00:56:00,75s,1.00
2023-08-31T00:57:00,75s,1.00
2023-08-31T00:58:00,75s,1.08
2023-08-31T00:59:00,75s,1.08
2023-08-31T01:00:00,75s,1.05
2023-08-31T01:01:00,75s,1.03
2023-08-31T01:02:00,75s,1.04
2023-08-31T01:03:00,75s,1.06
2023-08-31T01:04:00,75s,1.08
2023-08-31T01:05:00,75s,1.16
2023-08-31T01:06:00,75s,1.07
2023-08-31T01:07:00,75s,1.01
2023-08-31T01:08:00,75s,0.99
2023-08-31T01:09:00,75s,0.99
2023-08-31T01:10:00,75s,1.06
2023-08-31T01:11:00,75s,1.06
2023-08-31T01:12:00,75s,1.06
2023-08-31T01:13:00,75s,0.98
2023-08-31T01:14:00,75s,0.98
2023-08-31T01:15:00,75s,0.98
2023-08-31T01:16:00,75s,0.99
2023-08-31T01:17:00,75s,1.06
2023-08-31T01:18:00,75s,1.06
2023-08-31T01:19:00,75s,0.98
2023-08-31T01:20:00,75s,1.42
2023-08-31T01:21:00,75s,0.94
2023-08-31T01:22:00,75s,1.03
2023-08-31T01:23:00,75s,1.02
2023-08-31T01:24:00,75s,1.00
2023-08-31T01:25:00,75s,0.93
2023-08-31T01:26:00,75s,0.99
2023-08-31T01:27:00,75s,0.93
2023-08-31T01:28:00,75s,1.02
2023-08-31T01:29:00,75s,1.02
2023-08-31T01:30:00,75s,1.02
2023-08-31T01:31:00,75s,0.93
2023-08-31T01:32:00,75s,0.93
2023-08-31T01:33:00,75s,0.99
2023-08-31T01:34:00,75s,1.01
2023-08-31T01:35:00,75s,1.01
2023-08-31T01:36:00,75s,0.94
2023-08-31T01:37:00,75s,0.93
2023-08-31T01:38:00,75s,0.94
2023-08-31T01:39:00,75s,0.93
2023-08-31T01:40:00,75s,1.01
2023-08-31T01:41:00,75s,1.02
2023-08-31T01:42:00,75s,1.02
2023-08-31T01:43:00,75s,0.94
2023-08-31T01:44:00,75s,0.94
2023-08-31T01:45:00,75s,0.94
2023-08-31T01:46:00,75s,11.15
2023-08-31T01:47:00,75s,1.78
2023-08-31T01:48:00,75s,1.06
2023-08-31T01:49:00,75s,1.06
2023-08-31T01:50:00,75s,1.10
2023-08-31T01:51:00,75s,1.19
2023-08-31T01:52:00,75s,1.14
2023-08-31T01:53:00,75s,1.14
2023-08-31T01:54:00,75s,1.06
2023-08-31T01:55:00,75s,1.06
2023-08-31T01:56:00,75s,1.06
2023-08-31T01:57:00,75s,1.10
2023-08-31T01:58:00,75s,1.14
2023-08-31T01:59:00,75s,1.13
2023-08-31T02:00:00,75s,1.04
2023-08-31T02:01:00,75s,1.42
2023-08-31T02:02:00,75s,1.13
2023-08-31T02:03:00,75s,1.06
2023-08-31T02:04:00,75s,1.25
2023-08-31T02:05:00,75s,0.97
2023-08-31T02:06:00,75s,0.93
2023-08-31T02:07:00,75s,0.94
2023-08-31T02:08:00,75s,0.93
2023-08-31T02:09:00,75s,1.01
2023-08-31T02:10:00,75s,0.97
2023-08-31T02:11:00,75s,0.95
2023-08-31T02:12:00,75s,0.88
2023-08-31T02:13:00,75s,1.15
2023-08-31T02:14:00,75s,1.62
2023-08-31T02:15:00,75s,0.90
2023-08-31T02:16:00,75s,0.83
2023-08-31T02:17:00,75s,0.82
2023-08-31T02:18:00,75s,0.82
2023-08-31T02:19:00,75s,0.82
2023-08-31T02:20:00,75s,0.82
2023-08-31T02:21:00,75s,0.82
2023-08-31T02:22:00,75s,0.82
2023-08-31T02:23:00,75s,0.83
2023-08-31T02:24:00,75s,0.89
2023-08-31T02:25:00,75s,0.90
2023-08-31T02:26:00,75s,0.90
2023-08-31T02:27:00,75s,0.90
2023-08-31T02:28:00,75s,1.33
2023-08-31T02:29:00,75s,0.90
2023-08-31T02:30:00,75s,0.83
2023-08-31T02:31:00,75s,0.82
2023-08-31T02:32:00,75s,1.19
2023-08-31T02:33:00,75s,0.82
2023-08-31T02:34:00,75s,0.82
2023-08-31T02:35:00,75s,1.54
2023-08-31T02:36:00,75s,0.87
2023-08-31T02:37:00,75s,0.94
2023-08-31T02:38:00,75s,0.93
2023-08-31T02:39:00,75s,1.04
2023-08-31T02:40:00,75s,0.94
2023-08-31T02:41:00,75s,1.00
2023-08-31T02:42:00,75s,1.12
2023-08-31T02:43:00,75s,1.08
2023-08-31T02:44:00,75s,1.25
2023-08-31T02:45:00,75s,1.16
2023-08-31T02:46:00,75s,1.16
2023-08-31T02:47:00,75s,1.07
2023-08-31T02:48:00,75s,1.08
2023-08-31T02:49:00,75s,1.07
2023-08-31T02:50:00,75s,1.26
2023-08-31T02:51:00,75s,1.08
2023-08-31T02:52:00,75s,1.03
2023-08-31T02:53:00,75s,10.33
2023-08-31T02:54:00,75s,10.23
2023-08-31T02:55:00,75s,10.24
2023-08-31T02:56:00,75s,10.03
2023-08-31T02:57:00,75s,10.15
2023-08-31T02:58:00,75s,1.22
2023-08-31T02:59:00,75s,1.22
2023-08-31T03:00:00,75s,1.06
2023-08-31T03:01:00,75s,0.97
2023-08-31T03:02:00,75s,0.97
2023-08-31T03:03:00,75s,0.92
2023-08-31T03:04:00,75s,0.92
2023-08-31T03:05:00,75s,0.91
2023-08-31T03:06:00,75s,0.92
2023-08-31T03:07:00,75s,0.94
2023-08-31T03:08:00,75s,0.94
2023-08-31T03:09:00,75s,1.02
2023-08-31T03:10:00,75s,1.11
2023-08-31T03:11:00,75s,1.08
2023-08-31T03:12:00,75s,1.01
2023-08-31T03:13:00,75s,0.92
2023-08-31T03:14:00,75s,0.94
2023-08-31T03:15:00,75s,0.94
2023-08-31T03:16:00,75s,0.94
2023-08-31T03:17:00,75s,0.94
2023-08-31T03:18:00,75s,0.93
2023-08-31T03:19:00,75s,0.93
2023-08-31T03:20:00,75s,1.37
2023-08-31T03:21:00,75s,1.11
2023-08-31T03:22:00,75s,1.06
2023-08-31T03:23:00,75s,1.07
2023-08-31T03:24:00,75s,1.06
2023-08-31T03:25:00,75s,0.97
2023-08-31T03:26:00,75s,0.97
2023-08-31T03:27:00,75s,0.96
2023-08-31T03:28:00,75s,0.98
2023-08-31T03:29:00,75s,0.97
2023-08-31T03:30:00,75s,0.97
2023-08-31T03:31:00,75s,0.97
2023-08-31T03:32:00,75s,1.05
2023-08-31T03:33:00,75s,1.05
2023-08-31T03:34:00,75s,1.14
2023-08-31T03:35:00,75s,1.05
2023-08-31T03:36:00,75s,1.04
2023-08-31T03:37:00,75s,0.92
2023-08-31T03:38:00,75s,0.92
2023-08-31T03:39:00,75s,0.93
2023-08-31T03:40:00,75s,0.92
2023-08-31T03:41:00,75s,1.03
2023-08-31T03:42:00,75s,1.25
2023-08-31T03:43:00,75s,1.09
2023-08-31T03:44:00,75s,1.09
2023-08-31T03:45:00,75s,1.15
2023-08-31T03:46:00,75s,1.09
2023-08-31T03:47:00,75s,1.09
2023-08-31T03:48:00,75s,1.09
2023-08-31T03:49:00,75s,1.01
2023-08-31T03:50:00,75s,1.01
2023-08-31T03:51:00,75s,1.01
2023-08-31T03:52:00,75s,1.02
2023-08-31T03:53:00,75s,1.01
2023-08-31T03:54:00,75s,1.01
2023-08-31T03:55:00,75s,1.09
2023-08-31T03:56:00,75s,1.23
2023-08-31T03:57:00,75s,1.08
2023-08-31T03:58:00,75s,1.01
2023-08-31T03:59:00,75s,1.00
2023-08-31T04:00:00,75s,1.03
2023-08-31T04:01:00,75s,0.93
2023-08-31T04:02:00,75s,0.93
2023-08-31T04:03:00,75s,1.17
2023-08-31T04:04:00,75s,0.92
2023-08-31T04:05:00,75s,0.94
2023-08-31T04:06:00,75s,1.54
2023-08-31T04:07:00,75s,1.05
2023-08-31T04:08:00,75s,0.97
2023-08-31T04:09:00,75s,0.90
2023-08-31T04:10:00,75s,1.65
2023-08-31T04:11:00,75s,0.99
2023-08-31T04:12:00,75s,0.99
2023-08-31T04:13:00,75s,0.92
2023-08-31T04:14:00,75s,0.92
2023-08-31T04:15:00,75s,0.91
2023-08-31T04:16:00,75s,0.91
2023-08-31T04:17:00,75s,0.91
2023-08-31T04:18:00,75s,1.17
2023-08-31T04:19:00,75s,1.29
2023-08-31T04:20:00,75s,1.00
2023-08-31T04:21:00,75s,1.00
2023-08-31T04:22:00,75s,1.44
2023-08-31T04:23:00,75s,0.96
2023-08-31T04:24:00,75s,0.94
2023-08-31T04:25:00,75s,0.93
2023-08-31T04:26:00,75s,0.82
2023-08-31T04:27:00,75s,0.83
2023-08-31T04:28:00,75s,0.82
2023-08-31T04:29:00,75s,0.82
2023-08-31T04:30:00,75s,0.82
2023-08-31T04:31:00,75s,0.82
2023-08-31T04:32:00,75s,0.82
2023-08-31T04:33:00,75s,1.00
2023-08-31T04:34:00,75s,1.35
2023-08-31T04:35:00,75s,0.90
2023-08-31T04:36:00,75s,1.05
2023-08-31T04:37:00,75s,1.04
2023-08-31T04:38:00,75s,1.11
2023-08-31T04:39:00,75s,0.97
2023-08-31T04:40:00,75s,0.99
2023-08-31T04:41:00,75s,0.98
2023-08-31T04:42:00,75s,0.98
2023-08-31T04:43:00,75s,0.97
2023-08-31T04:44:00,75s,0.97
2023-08-31T04:45:00,75s,0.97
2023-08-31T04:46:00,75s,1.30
2023-08-31T04:47:00,75s,0.97
2023-08-31T04:48:00,75s,0.97
2023-08-31T04:49:00,75s,1.04
2023-08-31T04:50:00,75s,1.04
2023-08-31T04:51:00,75s,1.04
2023-08-31T04:52:00,75s,1.01
2023-08-31T04:53:00,75s,1.09
2023-08-31T04:54:00,75s,1.07
2023-08-31T04:55:00,75s,1.09
2023-08-31T04:56:00,75s,1.06
2023-08-31T04:57:00,75s,1.02
2023-08-31T04:58:00,75s,0.99
2023-08-31T04:59:00,75s,0.98
2023-08-31T05:00:00,75s,0.98
2023-08-31T05:01:00,75s,1.07
2023-08-31T05:02:00,75s,1.08
2023-08-31T05:03:00,75s,1.06
2023-08-31T05:04:00,75s,1.01
2023-08-31T05:05:00,75s,0.98
2023-08-31T05:06:00,75s,0.98
2023-08-31T05:07:00,75s,1.01
2023-08-31T05:08:00,75s,0.95
2023-08-31T05:09:00,75s,1.20
2023-08-31T05:10:00,75s,1.03
2023-08-31T05:11:00,75s,1.01
2023-08-31T05:12:00,75s,0.94
2023-08-31T05:13:00,75s,1.01
2023-08-31T05:14:00,75s,1.00
2023-08-31T05:15:00,75s,1.01
2023-08-31T05:16:00,75s,0.93
2023-08-31T05:17:00,75s,0.92
2023-08-31T05:18:00,75s,0.92
2023-08-31T05:19:00,75s,0.93
2023-08-31T05:20:00,75s,1.31
2023-08-31T05:21:00,75s,0.93
2023-08-31T05:22:00,75s,0.93
2023-08-31T05:23:00,75s,1.00
2023-08-31T05:24:00,75s,1.40
2023-08-31T05:25:00,75s,1.32
2023-08-31T05:26:00,75s,1.00
2023-08-31T05:27:00,75s,0.96
2023-08-31T05:28:00,75s,0.92
2023-08-31T05:29:00,75s,1.16
2023-08-31T05:30:00,75s,0.92
2023-08-31T05:31:00,75s,1.13
2023-08-31T05:32:00,75s,0.94
2023-08-31T05:33:00,75s,0.91
2023-08-31T05:34:00,75s,0.94
2023-08-31T05:35:00,75s,1.47
2023-08-31T05:36:00,75s,1.17
2023-08-31T05:37:00,75s,1.22
2023-08-31T05:38:00,75s,1.14
2023-08-31T05:39:00,75s,1.06
2023-08-31T05:40:00,75s,1.06
2023-08-31T05:41:00,75s,1.15
2023-08-31T05:42:00,75s,1.31
2023-08-31T05:43:00,75s,1.07
2023-08-31T05:44:00,75s,1.04
2023-08-31T05:45:00,75s,1.07
2023-08-31T05:46:00,75s,1.06
2023-08-31T05:47:00,75s,1.21
2023-08-31T05:48:00,75s,1.20
2023-08-31T05:49:00,75s,1.21
2023-08-31T05:50:00,75s,1.05
2023-08-31T05:51:00,75s,1.05
2023-08-31T05:52:00,75s,0.96
2023-08-31T05:53:00,75s,1.51
2023-08-31T05:54:00,75s,0.93
2023-08-31T05:55:00,75s,1.28
2023-08-31T05:56:00,75s,0.93
2023-08-31T05:57:00,75s,0.92
2023-08-31T05:58:00,75s,0.92
2023-08-31T05:59:00,75s,1.09
2023-08-31T06:00:00,75s,1.02
2023-08-31T06:01:00,75s,2.37
2023-08-31T06:02:00,75s,3.07
2023-08-31T06:03:00,75s,3.74
2023-08-31T06:04:00,75s,3.25
2023-08-31T06:05:00,75s,3.04
2023-08-31T06:06:00,75s,3.04
2023-08-31T06:07:00,75s,3.30
2023-08-31T06:08:00,75s,3.19
2023-08-31T06:09:00,75s,2.92
2023-08-31T06:10:00,75s,3.31
2023-08-31T06:11:00,75s,2.98
2023-08-31T06:12:00,75s,3.12
2023-08-31T06:13:00,75s,2.78
2023-08-31T06:14:00,75s,2.75
2023-08-31T06:15:00,75s,2.66
2023-08-31T06:16:00,75s,2.67
2023-08-31T06:17:00,75s,2.64
2023-08-31T06:18:00,75s,2.63
2023-08-31T06:19:00,75s,2.64
2023-08-31T06:20:00,75s,2.97
2023-08-31T06:21:00,75s,2.62
2023-08-31T06:22:00,75s,2.91
2023-08-31T06:23:00,75s,2.76
2023-08-31T06:24:00,75s,2.73
2023-08-31T06:25:00,75s,2.91
2023-08-31T06:26:00,75s,2.90
2023-08-31T06:27:00,75s,2.70
2023-08-31T06:28:00,75s,2.74
2023-08-31T06:29:00,75s,2.81
2023-08-31T06:30:00,75s,2.81
2023-08-31T06:31:00,75s,2.81
2023-08-31T06:32:00,75s,2.73
2023-08-31T06:33:00,75s,2.81
2023-08-31T06:34:00,75s,2.90
2023-08-31T06:35:00,75s,2.87
2023-08-31T06:36:00,75s,2.83
2023-08-31T06:37:00,75s,2.77
2023-08-31T06:38:00,75s,2.75
2023-08-31T06:39:00,75s,2.74
2023-08-31T06:40:00,75s,2.73
2023-08-31T06:41:00,75s,2.73
2023-08-31T06:42:00,75s,2.81
2023-08-31T06:43:00,75s,2.81
2023-08-31T06:44:00,75s,2.82
2023-08-31T06:45:00,75s,2.79
2023-08-31T06:46:00,75s,2.75
2023-08-31T06:47:00,75s,3.05
2023-08-31T06:48:00,75s,3.37
2023-08-31T06:49:00,75s,3.09
2023-08-31T06:50:00,75s,3.24
2023-08-31T06:51:00,75s,3.01
2023-08-31T06:52:00,75s,2.93
2023-08-31T06:53:00,75s,2.96
2023-08-31T06:54:00,75s,3.01
2023-08-31T06:55:00,75s,3.03
2023-08-31T06:56:00,75s,2.99
2023-08-31T06:57:00,75s,2.92
2023-08-31T06:58:00,75s,2.93
2023-08-31T06:59:00,75s,2.91
2023-08-31T07:00:00,75s,2.92
2023-08-31T07:01:00,75s,2.92
2023-08-31T07:02:00,75s,2.90
2023-08-31T07:03:00,75s,3.00
2023-08-31T07:04:00,75s,3.19
2023-08-31T07:05:00,75s,3.25
2023-08-31T07:06:00,75s,3.33
2023-08-31T07:07:00,75s,3.83
2023-08-31T07:08:00,75s,3.34
2023-08-31T07:09:00,75s,3.65
2023-08-31T07:10:00,75s,3.46
2023-08-31T07:11:00,75s,3.68
2023-08-31T07:12:00,75s,3.44
2023-08-31T07:13:00,75s,3.44
2023-08-31T07:14:00,75s,3.45
2023-08-31T07:15:00,75s,3.44
2023-08-31T07:16:00,75s,3.44
2023-08-31T07:17:00,75s,3.51
2023-08-31T07:18:00,75s,3.52
2023-08-31T07:19:00,75s,3.52
2023-08-31T07:20:00,75s,3.55
2023-08-31T07:21:00,75s,3.52
2023-08-31T07:22:00,75s,3.54
2023-08-31T07:23:00,75s,3.47
2023-08-31T07:24:00,75s,3.48
2023-08-31T07:25:00,75s,3.49
2023-08-31T07:26:00,75s,3.50
2023-08-31T07:27:00,75s,3.51
2023-08-31T07:28:00,75s,3.57
2023-08-31T07:29:00,75s,3.62
2023-08-31T07:30:00,75s,3.94
2023-08-31T07:31:00,75s,4.02
2023-08-31T07:32:00,75s,3.84
2023-08-31T07:33:00,75s,3.57
2023-08-31T07:34:00,75s,3.56
2023-08-31T07:35:00,75s,3.47
2023-08-31T07:36:00,75s,3.44
2023-08-31T07:37:00,75s,3.34
2023-08-31T07:38:00,75s,3.30
2023-08-31T07:39:00,75s,3.31
2023-08-31T07:40:00,75s,3.39
2023-08-31T07:41:00,75s,3.39
2023-08-31T07:42:00,75s,3.35
2023-08-31T07:43:00,75s,3.37
2023-08-31T07:44:00,75s,3.68
2023-08-31T07:45:00,75s,3.42
2023-08-31T07:46:00,75s,3.79
2023-08-31T07:47:00,75s,3.35
2023-08-31T07:48:00,75s,3.27
2023-08-31T07:49:00,75s,3.27
2023-08-31T07:50:00,75s,3.02
2023-08-31T07:51:00,75s,2.96
2023-08-31T07:52:00,75s,3.02
2023-08-31T07:53:00,75s,3.03
2023-08-31T07:54:00,75s,3.02
2023-08-31T07:55:00,75s,3.13
2023-08-31T07:56:00,75s,2.95
2023-08-31T07:57:00,75s,3.03
2023-08-31T07:58:00,75s,3.03
2023-08-31T07:59:00,75s,3.04
2023-08-31T08:00:00,75s,2.94
2023-08-31T08:01:00,75s,3.18
2023-08-31T08:02:00,75s,3.30
2023-08-31T08:03:00,75s,3.37
2023-08-31T08:04:00,75s,3.47
2023-08-31T08:05:00,75s,3.65
2023-08-31T08:06:00,75s,3.73
2023-08-31T08:07:00,75s,3.41
2023-08-31T08:08:00,75s,3.42
2023-08-31T08:09:00,75s,3.50
2023-08-31T08:10:00,75s,3.52
2023-08-31T08:11:00,75s,3.86
2023-08-31T08:12:00,75s,3.42
2023-08-31T08:13:00,75s,3.41
2023-08-31T08:14:00,75s,3.08
2023-08-31T08:15:00,75s,3.61
2023-08-31T08:16:00,75s,3.07
2023-08-31T08:17:00,75s,3.05
2023-08-31T08:18:00,75s,3.16
2023-08-31T08:19:00,75s,3.05
2023-08-31T08:20:00,75s,3.04
2023-08-31T08:21:00,75s,12.20
2023-08-31T08:22:00,75s,12.12
2023-08-31T08:23:00,75s,11.93
2023-08-31T08:24:00,75s,11.76
2023-08-31T08:25:00,75s,11.65
2023-08-31T08:26:00,75s,3.44
2023-08-31T08:27:00,75s,3.12
2023-08-31T08:28:00,75s,3.10
2023-08-31T08:29:00,75s,3.08
2023-08-31T08:30:00,75s,3.06
2023-08-31T08:31:00,75s,3.04
2023-08-31T08:32:00,75s,3.01
2023-08-31T08:33:00,75s,3.06
2023-08-31T08:34:00,75s,3.11
2023-08-31T08:35:00,75s,3.06
2023-08-31T08:36:00,75s,2.97
2023-08-31T08:37:00,75s,3.42
2023-08-31T08:38:00,75s,2.85
2023-08-31T08:39:00,75s,2.86
2023-08-31T08:40:00,75s,2.85
2023-08-31T08:41:00,75s,2.82
2023-08-31T08:42:00,75s,2.81
2023-08-31T08:43:00,75s,2.80
2023-08-31T08:44:00,75s,2.71
2023-08-31T08:45:00,75s,2.79
2023-08-31T08:46:00,75s,2.73
2023-08-31T08:47:00,75s,2.70
2023-08-31T08:48:00,75s,2.65
2023-08-31T08:49:00,75s,2.66
2023-08-31T08:50:00,75s,2.58
2023-08-31T08:51:00,75s,2.59
2023-08-31T08:52:00,75s,2.57
2023-08-31T08:53:00,75s,2.50
2023-08-31T08:54:00,75s,2.51
2023-08-31T08:55:00,75s,2.54
2023-08-31T08:56:00,75s,2.75
2023-08-31T08:57:00,75s,2.63
2023-08-31T08:58:00,75s,2.64
2023-08-31T08:59:00,75s,2.63
2023-08-31T09:00:00,75s,2.61
2023-08-31T09:01:00,75s,2.79
2023-08-31T09:02:00,75s,2.86
2023-08-31T09:03:00,75s,3.02
2023-08-31T09:04:00,75s,2.90
2023-08-31T09:05:00,75s,2.93
2023-08-31T09:06:00,75s,3.35
2023-08-31T09:07:00,75s,2.98
2023-08-31T09:08:00,75s,2.94
2023-08-31T09:09:00,75s,2.93
2023-08-31T09:10:00,75s,2.87
2023-08-31T09:11:00,75s,3.15
2023-08-31T09:12:00,75s,2.79
2023-08-31T09:13:00,75s,3.00
2023-08-31T09:14:00,75s,2.72
2023-08-31T09:15:00,75s,2.72
2023-08-31T09:16:00,75s,2.71
2023-08-31T09:17:00,75s,2.69
2023-08-31T09:18:00,75s,2.42
2023-08-31T09:19:00,75s,2.48
2023-08-31T09:20:00,75s,2.68
2023-08-31T09:21:00,75s,2.52
2023-08-31T09:22:00,75s,2.52
2023-08-31T09:23:00,75s,2.86
2023-08-31T09:24:00,75s,2.53
2023-08-31T09:25:00,75s,2.54
2023-08-31T09:26:00,75s,2.57
2023-08-31T09:27:00,75s,2.54
2023-08-31T09:28:00,75s,2.55
2023-08-31T09:29:00,75s,2.60
2023-08-31T09:30:00,75s,2.61
2023-08-31T09:31:00,75s,2.63
2023-08-31T09:32:00,75s,2.66
2023-08-31T09:33:00,75s,2.69
2023-08-31T09:34:00,75s,2.69
2023-08-31T09:35:00,75s,2.66
2023-08-31T09:36:00,75s,2.55
2023-08-31T09:37:00,75s,2.56
2023-08-31T09:38:00,75s,2.50
2023-08-31T09:39:00,75s,2.52
2023-08-31T09:40:00,75s,2.59
2023-08-31T09:41:00,75s,2.54
2023-08-31T09:42:00,75s,2.71
2023-08-31T09:43:00,75s,2.55
2023-08-31T09:44:00,75s,2.68
2023-08-31T09:45:00,75s,2.66
2023-08-31T09:46:00,75s,2.52
2023-08-31T09:47:00,75s,2.52
2023-08-31T09:48:00,75s,2.54
2023-08-31T09:49:00,75s,2.39
2023-08-31T09:50:00,75s,2.45
2023-08-31T09:51:00,75s,2.50
2023-08-31T09:52:00,75s,2.47
2023-08-31T09:53:00,75s,2.48
2023-08-31T09:54:00,75s,2.60
2023-08-31T09:55:00,75s,2.55
2023-08-31T09:56:00,75s,2.59
2023-08-31T09:57:00,75s,2.59
2023-08-31T09:58:00,75s,2.53
2023-08-31T09:59:00,75s,2.41
2023-08-31T10:00:00,75s,2.46
2023-08-31T10:01:00,75s,2.62
2023-08-31T10:02:00,75s,2.42
2023-08-31T10:03:00,75s,2.44
2023-08-31T10:04:00,75s,2.64
2023-08-31T10:05:00,75s,2.47
2023-08-31T10:06:00,75s,2.93
2023-08-31T10:07:00,75s,2.47
2023-08-31T10:08:00,75s,2.62
2023-08-31T10:09:00,75s,2.66
2023-08-31T10:10:00,75s,2.66
2023-08-31T10:11:00,75s,2.68
2023-08-31T10:12:00,75s,2.44
2023-08-31T10:13:00,75s,2.45
2023-08-31T10:14:00,75s,2.47
2023-08-31T10:15:00,75s,2.81
2023-08-31T10:16:00,75s,2.48
2023-08-31T10:17:00,75s,2.79
2023-08-31T10:18:00,75s,2.77
2023-08-31T10:19:00,75s,2.57
2023-08-31T10:20:00,75s,2.97
2023-08-31T10:21:00,75s,2.74
2023-08-31T10:22:00,75s,2.69
2023-08-31T10:23:00,75s,2.98
2023-08-31T10:24:00,75s,2.86
2023-08-31T10:25:00,75s,3.14
2023-08-31T10:26:00,75s,2.86
2023-08-31T10:27:00,75s,2.89
2023-08-31T10:28:00,75s,2.83
2023-08-31T10:29:00,75s,2.84
2023-08-31T10:30:00,75s,2.85
2023-08-31T10:31:00,75s,2.91
2023-08-31T10:32:00,75s,2.98
2023-08-31T10:33:00,75s,3.02
2023-08-31T10:34:00,75s,3.04
2023-08-31T10:35:00,75s,2.97
2023-08-31T10:36:00,75s,2.99
2023-08-31T10:37:00,75s,3.24
2023-08-31T10:38:00,75s,2.94
2023-08-31T10:39:00,75s,3.04
2023-08-31T10:40:00,75s,3.07
2023-08-31T10:41:00,75s,3.23
2023-08-31T10:42:00,75s,3.21
2023-08-31T10:43:00,75s,3.32
2023-08-31T10:44:00,75s,3.39
2023-08-31T10:45:00,75s,3.43
2023-08-31T10:46:00,75s,3.46
2023-08-31T10:47:00,75s,3.41
2023-08-31T10:48:00,75s,3.43
2023-08-31T10:49:00,75s,3.76
2023-08-31T10:50:00,75s,4.03
2023-08-31T10:51:00,75s,3.90
2023-08-31T10:52:00,75s,3.92
2023-08-31T10:53:00,75s,3.98
2023-08-31T10:54:00,75s,3.94
2023-08-31T10:55:00,75s,4.06
2023-08-31T10:56:00,75s,4.24
2023-08-31T10:57:00,75s,4.45
2023-08-31T10:58:00,75s,4.64
2023-08-31T10:59:00,75s,4.63
2023-08-31T11:00:00,75s,4.70
2023-08-31T11:01:00,75s,4.90
2023-08-31T11:02:00,75s,4.63
2023-08-31T11:03:00,75s,4.61
2023-08-31T11:04:00,75s,4.52
2023-08-31T11:05:00,75s,4.40
2023-08-31T11:06:00,75s,4.31
2023-08-31T11:07:00,75s,4.17
2023-08-31T11:08:00,75s,4.19
2023-08-31T11:09:00,75s,4.32
2023-08-31T11:10:00,75s,4.21
2023-08-31T11:11:00,75s,15.45
2023-08-31T11:12:00,75s,14.99
2023-08-31T11:13:00,75s,15.31
2023-08-31T11:14:00,75s,15.11
2023-08-31T11:15:00,75s,15.06
2023-08-31T11:16:00,75s,15.05
2023-08-31T11:17:00,75s,14.99
2023-08-31T11:18:00,75s,15.23
2023-08-31T11:19:00,75s,15.02
2023-08-31T11:20:00,75s,15.07
2023-08-31T11:21:00,75s,25.67
2023-08-31T11:22:00,75s,26.91
2023-08-31T11:23:00,75s,26.48
2023-08-31T11:24:00,75s,25.96
2023-08-31T11:25:00,75s,25.41
2023-08-31T11:26:00,75s,25.25
2023-08-31T11:27:00,75s,24.83
2023-08-31T11:28:00,75s,22.66
2023-08-31T11:29:00,75s,19.51
2023-08-31T11:30:00,75s,19.50
2023-08-31T11:31:00,75s,19.71
2023-08-31T11:32:00,75s,19.91
2023-08-31T11:33:00,75s,19.45
2023-08-31T11:34:00,75s,19.43
2023-08-31T11:35:00,75s,19.30
2023-08-31T11:36:00,75s,19.37
2023-08-31T11:37:00,75s,19.55
2023-08-31T11:38:00,75s,19.52
2023-08-31T11:39:00,75s,19.45
2023-08-31T11:40:00,75s,19.43
2023-08-31T11:41:00,75s,19.41
2023-08-31T11:42:00,75s,20.26
2023-08-31T11:43:00,75s,19.53
2023-08-31T11:44:00,75s,19.48
2023-08-31T11:45:00,75s,19.25
2023-08-31T11:46:00,75s,19.23
2023-08-31T11:47:00,75s,19.26
2023-08-31T11:48:00,75s,19.23
2023-08-31T11:49:00,75s,19.38
2023-08-31T11:50:00,75s,19.34
2023-08-31T11:51:00,75s,19.31
2023-08-31T11:52:00,75s,19.42
2023-08-31T11:53:00,75s,19.35
2023-08-31T11:54:00,75s,20.94
2023-08-31T11:55:00,75s,21.82
2023-08-31T11:56:00,75s,22.83
2023-08-31T11:57:00,75s,23.28
2023-08-31T11:58:00,75s,23.24
2023-08-31T11:59:00,75s,22.95
2023-08-31T12:00:00,75s,23.02
2023-08-31T12:01:00,75s,22.22
2023-08-31T12:02:00,75s,22.36
2023-08-31T12:03:00,75s,20.93
2023-08-31T12:04:00,75s,20.06
2023-08-31T12:05:00,75s,19.68
2023-08-31T12:06:00,75s,19.23
2023-08-31T12:07:00,75s,19.16
2023-08-31T12:08:00,75s,19.14
2023-08-31T12:09:00,75s,19.15
2023-08-31T12:10:00,75s,19.52
2023-08-31T12:11:00,75s,19.07
2023-08-31T12:12:00,75s,19.46
2023-08-31T12:13:00,75s,19.22
2023-08-31T12:14:00,75s,19.21
2023-08-31T12:15:00,75s,19.77
2023-08-31T12:16:00,75s,19.26
2023-08-31T12:17:00,75s,19.45
2023-08-31T12:18:00,75s,19.23
2023-08-31T12:19:00,75s,19.39
2023-08-31T12:20:00,75s,19.30
2023-08-31T12:21:00,75s,19.38
2023-08-31T12:22:00,75s,19.99
2023-08-31T12:23:00,75s,19.63
2023-08-31T12:24:00,75s,19.69
2023-08-31T12:25:00,75s,19.74
2023-08-31T12:26:00,75s,19.72
2023-08-31T12:27:00,75s,19.50
2023-08-31T12:28:00,75s,19.49
2023-08-31T12:29:00,75s,19.40
2023-08-31T12:30:00,75s,19.99
2023-08-31T12:31:00,75s,20.02
2023-08-31T12:32:00,75s,19.91
2023-08-31T12:33:00,75s,19.68
2023-08-31T12:34:00,75s,19.91
2023-08-31T12:35:00,75s,19.73
2023-08-31T12:36:00,75s,19.74
2023-08-31T12:37:00,75s,19.76
2023-08-31T12:38:00,75s,19.73
2023-08-31T12:39:00,75s,19.69
2023-08-31T12:40:00,75s,19.71
2023-08-31T12:41:00,75s,20.23
2023-08-31T12:42:00,75s,19.62
2023-08-31T12:43:00,75s,19.88
2023-08-31T12:44:00,75s,19.69
2023-08-31T12:45:00,75s,19.50
2023-08-31T12:46:00,75s,19.33
2023-08-31T12:47:00,75s,19.37
2023-08-31T12:48:00,75s,19.54
2023-08-31T12:49:00,75s,19.43
2023-08-31T12:50:00,75s,19.44
2023-08-31T12:51:00,75s,19.66
2023-08-31T12:52:00,75s,19.36
2023-08-31T12:53:00,75s,19.78
2023-08-31T12:54:00,75s,21.05
2023-08-31T12:55:00,75s,19.90
2023-08-31T12:56:00,75s,19.91
2023-08-31T12:57:00,75s,20.32
2023-08-31T12:58:00,75s,21.88
2023-08-31T12:59:00,75s,23.62
2023-08-31T13:00:00,75s,25.26
2023-08-31T13:01:00,75s,26.09
2023-08-31T13:02:00,75s,25.93
2023-08-31T13:03:00,75s,26.03
2023-08-31T13:04:00,75s,26.32
2023-08-31T13:05:00,75s,25.98
2023-08-31T13:06:00,75s,26.18
2023-08-31T13:07:00,75s,26.27
2023-08-31T13:08:00,75s,25.71
2023-08-31T13:09:00,75s,25.56
2023-08-31T13:10:00,75s,25.81
2023-08-31T13:11:00,75s,26.39
2023-08-31T13:12:00,75s,25.94
2023-08-31T13:13:00,75s,26.01
2023-08-31T13:14:00,75s,25.70
2023-08-31T13:15:00,75s,25.70
2023-08-31T13:16:00,75s,25.36
2023-08-31T13:17:00,75s,25.41
2023-08-31T13:18:00,75s,25.61
2023-08-31T13:19:00,75s,25.66
2023-08-31T13:20:00,75s,26.11
2023-08-31T13:21:00,75s,25.17
2023-08-31T13:22:00,75s,23.64
2023-08-31T13:23:00,75s,22.84
2023-08-31T13:24:00,75s,20.38
2023-08-31T13:25:00,75s,19.98
2023-08-31T13:26:00,75s,19.69
2023-08-31T13:27:00,75s,19.62
2023-08-31T13:28:00,75s,20.10
2023-08-31T13:29:00,75s,19.57
2023-08-31T13:30:00,75s,20.05
2023-08-31T13:31:00,75s,19.62
2023-08-31T13:32:00,75s,19.72
2023-08-31T13:33:00,75s,19.70
2023-08-31T13:34:00,75s,19.58
2023-08-31T13:35:00,75s,19.64
2023-08-31T13:36:00,75s,19.38
2023-08-31T13:37:00,75s,19.49
2023-08-31T13:38:00,75s,28.48
2023-08-31T13:39:00,75s,28.03
2023-08-31T13:40:00,75s,28.05